User: anonymous   Login
Location: Unspecified
(0.0000°N, 0.0000°E)
Time: 14:21:42
(UTC+02:00)
Language:

Iridium 39 - Orbit

View from above orbital plane
View from above orbital plane
View from above satellite
View from above satellite

Ground track
Ground track

The orbit data is extracted from the following two-line orbital elements,

1 25042U 97069D   15183.45656455  .00000167  00000-0  52672-4 0  9992
2 25042 086.3978 321.3406 0002360 094.2705 265.8761 14.34216585923720
Epoch (UTC): 02 July 2015 10:57:27
Eccentricity: 0.0002360
inclination: 86.3978°
perigee height: 776 km
apogee height: 779 km
right ascension of ascending node: 321.3406°
argument of perigee: 94.2705°
revolutions per day: 14.34216585
mean anomaly at epoch: 265.8761°
orbit number at epoch: 92372

The dashed part of the orbit path shows where the satellite is in the earth's shadow,  

DLR